Вернуться в каталог

COSMOS 2251 DEB

АктивенLEO
NORAD 33766·DEBRIS·🇷🇺 Russia

Запущен Jun 16, 1993 с Plesetsk Cosmodrome

Loading…

Ближайшие Пролёты (ближайшие 24 часа)

TLE

СвежийSource: Space-Track

Эпоха: Sep 14, 2026, 05:56 UTC

1 33766U 93036P   26257.24723450  .00000790  00000-0  27603-3 0  9992
2 33766  74.1886 354.3162 0061850 119.3826 241.3523 14.35681877916988

Отслеживайте COSMOS 2251 DEB в реальном времени с AllMySat

Download on the App Store